DateTimeUTC,F1_A11,F1_S11,BsB_S11,BsG_S11,BsR_S11,BbsB_S11,BbsG_S11,BbsR_S11,BaB_A11,BaG_A11,BaR_A11,Tu_S11,T_S11,Uu_S11,U_S11,P_S11,T1_A11
2021-12-10T21:00:00Z,00000200,21000000,,,,,,,-000.07,0000.25,0000.49,18.8,25.7,,00.0,0651.5,31.0
2021-12-10T21:01:00Z,00000200,21000000,,,,,,,0000.17,-000.07,0000.02,18.8,25.7,,00.0,0651.5,31.0
2021-12-10T21:02:00Z,00000200,21000000,,,,,,,0000.01,-000.05,0000.11,18.8,25.7,,00.0,0651.5,31.0
2021-12-10T21:03:00Z,00000200,61000000,,,,,,,0000.67,0000.30,0000.38,18.8,25.7,,00.0,0651.5,31.0
2021-12-10T21:04:00Z,00000200,41000000,0000.30,0000.40,0000.06,-000.45,-000.11,-000.04,-000.03,0000.34,-000.28,19.2,25.7,,00.0,0652.4,31.1
2021-12-10T21:05:00Z,00000200,01000000,0000.08,-000.09,-000.00,0000.00,0000.16,0000.10,0000.30,0000.23,0000.70,19.3,25.7,,00.0,0652.5,31.0
2021-12-10T21:06:00Z,00000200,01000000,0000.06,0000.33,0000.04,0000.08,0000.15,0000.29,0000.37,0000.18,-000.31,19.2,25.7,,00.0,0652.5,31.0
2021-12-10T21:07:00Z,00000200,01000000,0000.95,0000.24,0000.39,-000.35,0000.26,0000.29,0000.01,0000.36,0000.12,19.2,25.6,,00.0,0652.5,31.0
2021-12-10T21:08:00Z,00000200,01000000,-000.22,0000.29,0000.01,-000.40,-000.02,0000.12,0000.16,0000.02,0000.00,19.1,25.6,,00.0,0652.5,31.0
2021-12-10T21:09:00Z,00000200,01000000,0000.45,0000.07,0000.34,-000.37,0000.04,0000.08,0000.08,0000.16,0000.16,19.0,25.6,,00.0,0652.5,31.0
2021-12-10T21:10:00Z,00000200,01000000,-000.11,0000.21,0000.16,0000.31,0000.11,0000.25,0000.15,-000.48,-000.10,18.9,25.5,,00.0,0652.5,31.0
2021-12-10T21:11:00Z,00000200,01000000,0000.44,0000.44,-000.04,-000.21,0000.51,-000.21,0000.02,0000.03,0000.22,18.9,25.5,,00.0,0652.5,31.0
2021-12-10T21:12:00Z,00000200,01000000,0000.80,0000.49,-000.17,-000.66,0000.27,0000.02,-000.01,0000.87,0000.13,18.9,25.4,,00.0,0652.5,31.0
2021-12-10T21:13:00Z,00000200,01000000,0000.07,0000.04,0000.23,-000.72,0000.20,0000.06,0000.51,0000.03,0000.40,19.0,25.4,,00.0,0652.5,31.0
2021-12-10T21:14:00Z,00000200,01000000,0000.36,-000.01,-000.06,-000.36,-000.01,0000.10,-000.11,-000.08,0000.08,19.0,25.4,,00.0,0652.5,31.0
2021-12-10T21:15:00Z,00000200,01000000,0000.59,0000.09,0000.13,0000.49,0000.13,-000.11,0000.15,0000.42,0000.11,19.1,25.5,,00.0,0652.5,31.0
2021-12-10T21:16:00Z,00000200,01000000,0000.31,0000.35,0000.26,0000.13,-000.05,-000.08,0000.51,0000.29,-000.30,19.1,25.5,,00.0,0652.5,31.0
2021-12-10T21:17:00Z,00000200,01000000,0000.64,0000.24,0000.26,0000.27,0000.21,0000.25,-000.09,0000.02,0000.36,19.2,25.5,,00.0,0652.5,31.0
2021-12-10T21:18:00Z,00000200,01000000,0001.02,0000.17,-000.17,-000.79,0000.35,0000.19,0000.14,0000.02,-000.05,19.2,25.5,,00.0,0652.5,31.0
2021-12-10T21:19:00Z,00000200,01000000,0000.09,-000.13,0000.11,0000.29,0000.11,0000.24,0000.20,0000.45,0000.26,19.3,25.6,,00.0,0652.5,31.1
2021-12-10T21:20:00Z,00000200,01000000,-000.36,0000.24,0000.07,-000.55,0000.15,-000.02,0000.36,-000.13,0000.23,19.3,25.6,,00.0,0652.6,31.1
2021-12-10T21:21:00Z,00000200,01000000,0000.44,0000.00,0000.10,-000.29,0000.24,0000.05,-000.14,0000.39,0000.04,19.2,25.6,,00.0,0652.5,31.0
2021-12-10T21:22:00Z,00000200,01000000,0000.30,0000.15,0000.14,0000.13,0000.25,0000.30,0000.16,-000.23,0000.14,19.2,25.6,,00.0,0652.5,31.0
2021-12-10T21:23:00Z,00000200,01000000,0000.09,0000.07,0000.26,-000.85,0000.04,0000.13,0000.40,0000.61,0000.31,19.1,25.5,,00.0,0652.5,31.0
2021-12-10T21:24:00Z,00000200,01000000,0000.30,0000.27,0000.13,-000.04,0000.27,0000.05,0000.11,-000.15,-000.22,19.0,25.5,,00.0,0652.5,31.0
2021-12-10T21:25:00Z,00000200,01000000,0000.42,0000.02,-000.02,-000.28,-000.02,0000.06,-000.36,-000.38,-000.01,18.9,25.5,,00.0,0652.5,31.0
2021-12-10T21:26:00Z,00000200,01000000,-000.13,0000.23,0000.09,-000.20,0000.29,-000.04,0000.12,0000.07,0000.11,18.9,25.4,,00.0,0652.5,31.0
2021-12-10T21:27:00Z,00000200,01000000,-000.57,0000.41,-000.01,-000.05,0000.31,-000.26,0000.12,0000.35,-000.02,18.9,25.4,,00.0,0652.5,31.0
2021-12-10T21:28:00Z,00000200,01000000,-000.20,0000.20,-000.08,-000.01,-000.09,0000.21,-000.02,-000.29,0000.46,19.0,25.4,,00.0,0652.6,31.0
2021-12-10T21:29:00Z,00000200,01000000,0000.73,0000.13,0000.03,-000.38,0000.26,0000.10,0000.39,0000.27,-000.29,19.0,25.4,,00.0,0652.6,31.0
2021-12-10T21:30:00Z,00000200,01000000,0000.23,0000.18,-000.02,-000.19,0000.11,0000.15,-000.01,0000.37,0000.17,19.0,25.4,,00.0,0652.6,31.0
2021-12-10T21:31:00Z,00000200,01000000,0000.83,0000.34,-000.01,-000.61,-000.22,0000.06,0000.01,-000.03,-000.15,19.1,25.5,,00.0,0652.6,31.0
2021-12-10T21:32:00Z,00000200,01000000,0000.49,0000.17,-000.25,-000.08,0000.05,0000.13,0000.16,0000.09,0000.09,19.1,25.5,,00.0,0652.6,31.0
2021-12-10T21:33:00Z,00000200,01000000,0000.11,0000.19,0000.14,0000.18,0000.20,0000.31,0000.29,-000.11,0000.07,19.2,25.5,,00.0,0652.6,31.0
2021-12-10T21:34:00Z,00000200,01000000,-000.23,0000.22,0000.17,-000.59,0000.24,-000.02,-000.27,0000.01,0000.15,19.2,25.5,,00.0,0652.6,31.0
2021-12-10T21:35:00Z,00000200,01000000,-000.08,0000.03,0000.26,-000.56,-000.06,-000.07,0000.19,0000.23,0000.04,19.2,25.6,,00.0,0652.6,31.0
2021-12-10T21:36:00Z,00000200,01000000,-000.46,0000.43,0000.14,-000.52,-000.00,0000.15,-000.12,-000.05,-000.05,19.1,25.5,,00.0,0652.6,31.0
2021-12-10T21:37:00Z,00000200,01000000,0000.22,0000.39,-000.01,0000.32,0000.16,-000.05,-000.02,0000.12,-000.08,19.1,25.5,,00.0,0652.5,31.0
2021-12-10T21:38:00Z,00000200,01000000,-000.01,0000.34,0000.36,-000.50,-000.16,0000.37,0000.26,0000.41,-000.01,19.0,25.5,,00.0,0652.5,31.0
2021-12-10T21:39:00Z,00000200,01000000,0000.29,0000.43,0000.15,-000.81,0000.36,-000.41,0000.12,-000.43,0000.37,18.9,25.4,,00.0,0652.5,31.0
2021-12-10T21:40:00Z,00000200,01000000,0000.19,-000.39,0000.14,-000.31,0000.42,0000.20,-000.24,-000.00,-000.19,18.8,25.4,,00.0,0652.5,31.0
2021-12-10T21:41:00Z,00000200,01000000,0000.51,0000.04,-000.22,-000.01,-000.04,0000.00,0000.05,0000.10,0000.04,18.8,25.4,,00.0,0652.5,30.9
2021-12-10T21:42:00Z,00000200,01000000,0000.12,0000.11,0000.21,-000.41,0000.01,-000.00,0000.08,0000.20,0000.04,18.8,25.3,,00.0,0652.5,31.0
2021-12-10T21:43:00Z,00000200,01000000,0000.64,0000.22,0000.13,0000.19,0000.24,0000.31,0000.42,-000.09,-000.02,18.9,25.3,,00.0,0652.5,31.0
2021-12-10T21:44:00Z,00000200,01000000,0000.43,0000.40,0000.19,-000.33,0000.33,-000.10,-000.05,0000.02,0000.20,18.9,25.4,,00.0,0652.5,31.0
2021-12-10T21:45:00Z,00000200,01000000,0000.29,-000.10,0000.14,0000.55,0000.27,0000.27,-000.18,0000.21,-000.13,19.0,25.4,,00.0,0652.5,31.0
2021-12-10T21:46:00Z,00000200,01000000,-000.10,-000.03,0000.32,0000.21,0000.08,0000.28,0000.32,-000.29,0000.06,19.0,25.4,,00.0,0652.6,31.0
2021-12-10T21:47:00Z,00000200,01000000,0000.54,-000.03,0000.19,0000.40,-000.02,-000.03,0000.08,0000.13,0000.19,19.0,25.4,,00.0,0652.5,31.0
2021-12-10T21:48:00Z,00000200,01000000,-000.05,0000.10,0000.36,0000.70,0000.11,0000.00,-000.42,-000.03,-000.56,19.0,25.4,,00.0,0652.5,31.0
2021-12-10T21:49:00Z,00000200,01000000,-000.02,0000.07,0000.08,-000.34,-000.11,-000.04,0000.39,-000.01,0000.62,19.0,25.4,,00.0,0652.5,31.0
2021-12-10T21:50:00Z,00000200,01000000,0000.74,0000.58,0000.06,-000.07,0000.19,-000.12,-000.09,0000.48,-000.31,18.9,25.4,,00.0,0652.5,31.0
2021-12-10T21:51:00Z,00000200,01000000,-000.24,0000.09,0000.13,0000.02,0000.05,-000.24,0000.24,-000.06,0000.40,18.8,25.4,,00.0,0652.5,31.0
2021-12-10T21:52:00Z,00000200,01000000,0000.70,0000.04,0000.15,-000.12,0000.18,0000.20,-000.01,0000.02,0000.01,18.8,25.3,,00.0,0652.5,30.9
2021-12-10T21:53:00Z,00000200,01000000,0000.14,0000.43,0000.07,0000.02,-000.09,-000.09,-000.03,-000.06,-000.17,18.7,25.3,,00.0,0652.4,30.9
2021-12-10T21:54:00Z,00000200,01000000,0000.38,0000.14,0000.14,-000.23,0000.20,0000.13,0000.24,0000.00,0000.25,18.6,25.2,,00.0,0652.4,30.9
2021-12-10T21:55:00Z,00000200,01000000,0000.68,0000.05,0000.42,0000.10,0000.12,0000.16,-000.07,-000.05,-000.47,18.5,25.2,,00.0,0652.5,30.9
2021-12-10T21:56:00Z,00000200,01000000,-000.27,0000.19,0000.07,-000.03,0000.35,0000.02,-000.13,-000.01,0000.21,18.5,25.2,,00.0,0652.4,30.9
2021-12-10T21:57:00Z,00000200,41000000,,,,,,,-000.61,-000.82,-000.04,18.6,25.2,,00.0,0652.4,30.9
2021-12-10T21:58:00Z,00000200,61000000,,,,,,,0000.17,0000.59,-000.24,18.3,25.3,,00.0,0651.5,30.9
2021-12-10T21:59:00Z,00000200,21000000,,,,,,,0000.20,0000.24,-000.08,18.3,25.4,,00.0,0651.5,31.0
